EHI
0 0 0 0 0 0 0 0 0 0 0 0 0 0 0 0 0 0 0 0 0 0 0 0 0 0 0 0 0 0 0 0 0 0 0 0 0 0 0 0 0 0 0 0
0 0 0 0 0 0 0 0 0 0 0 0 0 0 0 0 0 0 0 0 0 0 0 0 0 0 0 0 0 0 0 0 0 0 0 0 0 0 0 0 0 0 0 0
0 0 0 0 0 0 0 0 0 0 0 0 0 0 0 0 0 0 0 0 0 0 0 0 0 0 0 0 0 0 0 0 0 0 0 0 0 0 0 0 0 0 0 0
0 0 0 0 0 0 0 0 0 0 0 0 0 0 0 0 0 0 0 0 0 0 0 0 0 0 0 0 0 0 0 0 0 0 0 0 0 0 0 0 0 0 0 0
0 0 0 0 0 0 0 0 0 0 0 0 0 0 0 0 0 0 0 0 0 0 0 0 0 0 0 0 0 0 0 0 0 0 0 0 0 0 0 0 0 0 0 0
0 0 0 0 0 0 0 0 0 0 0 0 0 0 0 0 0 0 0 0 0 0 0 0 0 0 0 0 0 0 0 0 0 0 0 0 0 0 0 0 0 0 0 0
0 0 0 0 0 0 0 0 0 0 0 0 0 0 0 0 0 0 0 0 0 0 0 0 0 0 0 0 0 0 0 0 0 0 0 0 0 0 0 0 0 0 0 0
0 0 0 0 0 0 0 0 0 0 0 0 0 0 0 0 0 0 0 0 0 0 0 0 0 0 0 0 0 0 0 0 0 0 0 0 0 0 0 0 0 0 0 0
0 0 0 0 0 0 0 0 0 0 0 0 0 0 0 0 0 0 0 0 0 0 0 0 0 0 0 0 0 0 0 0 0 0 0 0 0 0 0 0 0 0 0 0
0 0 0 0 0 0 0 0 0 0 0 0 0 0 0 0 0 0 0 0 0 0 0 0 0 0 0 0 0 0 0 0 0 0 0 0 0 0 0 0 0 0 0 0
0 0 0 0 0 0 0 0 0 0 0 0 0 0 0 0 0 0 0 0 0 0 0 0 0 0 0 0 0 0 0 0 0 0 0 0 0 0 0 0 0 0 0 0
0 0 0 0 0 0 0 0 0 0 0 0 0 0 0 0 0 0 0 0 0 0 0 0 0 0 0 0 0 0 0 0 0 0 0 0 0 0 0 0 0 0 0 0
0 0 0 0 0 0 0 0 0 0 0 0 0 0 0 0 0 0 0 0 0 0 0 0 0 0 0 0 0 0 0 0 0 0 0 0 0 0 0 0 0 0 0 0
0 0 0 0 0 0 0 0 0 0 0 0 0 0 0 0 0 0 0 0 0 0 0 0 0 0 0 0 0 0 0 0 0 0 0 0 0 0 0 0 0 0 0 0
0 0 0 0 0 0 0 0 0 0 0 0 0 0 0 0 0 0 0 0 0 0 0 0 0 0 0 0 0 0 0 0 0 0 0 0 0 0 0 0 0 0 0 0
0 0 0 0 0 0 0 0 0 0 0 0 0 0 0 0 0 0 0 0 0 0 0 0 0 0 0 0 0 0 0 0 0 0 0 0 0 0 0 0 0 0 0 0
0 0 0 0 0 0 0 0 0 0 0 0 0 0 0 0 0 0 0 0 0 0 0 0 0 0 0 0 0 0 0 0 0 0 0 0 0 0 0 0 0 0 0 0
0 0 0 0 0 0 0 0 0 0 0 0 0 0 0 0 0 0 0 0 0 0 0 0 0 0 0 0 0 0 0 0 0 0 0 0 0 0 0 0 0 0 0 0
0 0 0 0 0 0 0 0 0 0 0 0 0 0 0 0 0 0 0 0 0 0 0 0 0 0 0 0 0 0 0 0 0 0 0 0 0 0 0 0 0 0 0 0
0 0 0 0 0 0 0 0 0 0 0 0 0 0 0 0 0 0 0 0 0 0 0 0 0 0 0 0 0 0 0 0 0 0 0 0 0 0 0 0 0 0 0 0
0 0 0 0 0 0 0 0 0 0 0 0 0 0 0 0 0 0 0 0 0 0 0 0 0 0 0 0 0 0 0 0 0 0 0 0 0 0 0 0 0 0 0 0
0 0 0 0 0 0 0 0 0 0 0 0 0 0 0 0 0 0 0 0 0 0 0 0 0 0 0 0 0 0 0 0 0 0 0 0 0 0 0 0 0 0 0 0
0 0 0 0 0 0 0 0 0 0 0 0 0 0 0 0 0 0 0 0 0 0 0 0 0 0 0 0 0 0 0 0 0 0 0 0 0 0 0 0 0 0 0 0
0 0 0 0 0 0 0 0 0 0 0 0 0 0 0 0 0 0 0 0 0 0 0 0 0 0 0 0 0 0 0 0 0 0 0 0 0 0 0 0 0 0 0 0
0 0 0 0 0 0 0 0 0 0 0 0 0 0 0 0 0 0 0 0 0 0 0 0 0 0 0 0 0 0 0 0 0 0 0 0 0 0 0 0 0 0 0 0
0 0 0 0 0 0 0 0 0 0 0 0 0 0 0 0 0 0 0 0 0 0 0 0 0 0 0 0 0 0 0 0 0 0 0 0 0 0 0 0 0 0 0 0
0 0 0 0 0 0 0 0 0 0 0 0 0 0 0 0 0 0 0 0 0 0 0 0 0 0 0 0 0 0 0 0 0 0 0 0 0 0 0 0 0 0 0 0
Wind_Speed
3 3 2 5 7 5 2 0 2 3 4 6 8 8 8 7 7 7 8 8 7 7 6 6 6 5 5 4 3 2 1 1 0 1 0 1 2 2 2 2 3 3 3 3
3 3 3 5 7 6 4 2 1 3 5 6 7 6 6 7 7 7 8 8 8 8 7 7 7 6 5 4 4 2 1 1 1 1 0 1 1 2 2 2 2 3 3 3
3 5 3 4 4 4 3 3 2 3 5 9 8 9 8 7 7 7 8 8 8 7 7 7 7 6 5 5 3 2 2 1 1 0 0 1 1 2 2 2 2 3 3 3
1 4 1 3 1 3 3 3 3 4 7 8 8 8 6 6 6 7 8 8 8 7 7 7 6 6 5 4 3 2 2 2 1 1 0 0 1 1 2 2 2 2 3 3
1 0 4 3 3 4 3 4 4 6 8 9 9 6 4 5 6 6 6 6 6 6 6 6 6 5 5 4 4 3 3 2 2 1 0 1 1 1 1 2 2 2 3 3
2 1 3 4 5 5 1 4 4 6 8 9 8 5 5 9 9 8 7 6 6 6 5 5 6 5 4 4 4 4 4 3 2 1 0 1 1 1 1 2 2 3 3 3
1 2 6 4 6 3 1 5 6 6 7 7 4 5 8 10 9 8 7 6 6 5 5 5 6 5 5 4 4 4 4 3 2 1 1 0 1 1 2 2 3 3 3 2
1 1 6 3 3 0 4 4 5 5 6 6 7 8 8 9 9 8 8 7 6 6 6 6 6 5 5 5 5 4 3 3 2 2 1 1 1 1 2 3 3 3 3 3
4 5 3 1 2 3 2 4 5 5 6 6 7 8 9 8 7 7 7 7 6 6 6 6 6 5 5 6 6 5 3 3 2 2 2 1 1 2 2 2 2 2 3 2
3 5 4 4 3 3 3 4 5 6 6 5 6 7 8 7 7 7 7 6 6 6 6 7 7 6 5 6 6 4 4 3 2 2 2 2 1 1 2 2 2 2 2 2
4 5 5 4 4 5 5 5 6 6 5 5 5 6 6 6 6 6 6 6 5 5 6 7 7 6 6 6 5 4 4 3 2 2 1 2 2 1 1 1 2 3 2 2
5 4 3 6 5 5 5 6 7 6 6 5 4 5 5 5 5 5 6 6 6 6 7 7 7 7 6 6 5 4 3 3 2 1 1 1 2 2 4 2 2 1 1 2
4 3 3 5 5 4 4 6 6 5 5 5 5 4 5 5 5 5 6 6 6 6 6 6 6 6 6 6 5 4 3 3 2 1 1 1 1 1 1 3 3 2 2 2
3 2 3 3 4 5 5 5 5 5 5 4 4 4 4 5 5 6 6 6 6 5 6 6 6 7 6 5 5 4 3 3 2 1 1 0 0 0 1 1 1 1 1 2
3 3 4 4 4 4 4 4 5 6 6 6 5 5 5 5 6 6 6 6 6 6 6 6 6 7 7 6 5 4 3 2 2 1 1 1 0 0 1 1 1 0 0 1
3 3 3 3 4 4 4 4 5 6 6 6 6 6 6 5 5 6 6 6 5 6 6 6 6 7 7 6 5 4 3 4 3 1 1 1 0 0 0 0 0 0 1 1
1 3 3 4 4 5 4 4 4 5 5 5 6 6 6 5 5 6 6 6 5 5 6 6 6 7 6 5 4 3 3 3 4 2 1 1 0 0 0 0 1 1 1 1
3 4 3 3 3 4 5 4 4 5 5 5 6 5 5 5 6 6 7 6 6 6 6 6 6 6 5 5 4 3 2 2 2 2 1 1 1 1 0 0 0 1 0 0
2 3 3 3 3 3 4 4 5 5 5 5 5 5 5 5 5 5 6 6 6 7 7 7 10 7 6 6 6 3 3 2 2 2 2 2 2 1 1 0 1 1 1 0
2 2 2 3 3 3 4 4 4 4 4 4 4 4 5 5 5 5 5 4 4 5 7 8 7 5 5 5 6 3 3 2 2 2 2 2 1 1 1 1 1 1 1 1
3 3 3 3 3 3 3 4 4 4 4 4 4 5 5 5 5 4 4 5 5 6 6 8 5 4 4 4 5 3 3 2 2 2 2 2 2 2 2 1 1 1 1 1
2 2 3 3 3 4 4 3 3 4 4 4 4 4 5 6 5 5 4 4 5 9 6 4 4 6 7 6 3 2 2 2 2 2 2 2 2 2 2 2 2 2 2 2
2 2 3 3 3 4 4 3 3 3 4 4 4 5 5 5 4 4 5 4 5 9 6 4 7 10 9 4 3 3 3 3 2 2 2 2 2 2 2 2 2 2 2 2
2 2 3 3 2 3 4 4 4 3 4 4 4 4 4 4 4 3 4 8 10 10 6 7 10 10 8 3 3 3 3 3 3 2 2 2 2 2 2 3 2 2 2 2
2 2 2 2 3 3 4 4 4 4 4 3 4 4 3 3 4 5 5 5 9 9 5 7 10 10 5 3 3 3 3 3 3 3 2 2 3 3 3 3 3 3 3 3
2 2 3 3 3 3 3 3 3 3 4 4 4 4 4 3 4 4 4 5 6 7 5 4 5 6 4 3 3 3 3 4 4 3 3 3 3 3 3 3 3 3 3 3
2 2 2 2 2 2 3 3 3 4 4 4 5 4 4 4 4 4 4 4 4 4 4 4 4 4 4 4 4 3 3 3 3 3 3 3 3 3 3 4 3 3 3 3
Wind_Direction
251 283 350 354 345 359 31 228 224 280 291 321 331 330 336 346 351 358 2 2 4 2 358 357 357 356 356 355 355 0 22 38 319 307 235 170 169 171 178 183 189 184 176 180
297 309 5 6 356 356 359 357 303 319 307 326 326 337 348 351 353 357 357 354 355 358 356 354 351 348 347 347 346 358 3 354 0 10 62 176 175 164 163 178 181 169 173 174
293 321 352 342 345 355 5 6 351 317 312 332 339 341 340 344 350 352 351 348 350 351 347 343 340 337 336 334 339 355 357 1 16 36 146 184 167 150 166 179 169 166 168 166
310 22 326 259 30 359 336 344 357 334 330 333 327 317 325 349 352 344 343 343 342 343 340 339 338 338 337 340 350 359 355 356 4 11 90 134 141 158 167 156 151 151 153 151
83 325 279 303 354 351 322 315 351 337 333 336 334 334 343 1 355 336 330 331 331 333 332 334 340 342 344 349 354 0 355 347 340 348 58 132 141 151 154 141 139 136 137 139
96 132 263 281 315 319 282 303 346 345 331 334 347 343 325 342 339 334 334 335 337 338 342 344 345 346 351 348 351 345 337 333 334 341 3 168 174 161 138 140 140 127 119 127
148 232 270 292 319 356 99 285 324 327 322 326 322 286 301 319 325 328 333 338 344 345 348 345 344 350 353 351 341 330 328 332 343 355 343 178 131 120 122 127 124 121 117 113
140 241 273 325 15 150 251 298 315 315 314 310 305 305 312 319 324 332 338 345 350 349 347 347 352 355 351 346 337 336 339 345 358 9 7 43 104 107 116 126 125 123 119 109
199 225 271 285 249 273 303 305 307 308 309 308 309 311 316 321 326 332 336 342 348 348 344 347 353 357 350 337 337 345 355 1 11 17 20 43 98 117 116 120 131 135 133 128
267 273 284 293 293 311 315 303 305 307 306 307 305 307 314 322 329 334 337 342 346 349 349 346 349 351 344 336 341 354 1 1 16 33 35 44 73 108 126 140 143 141 144 140
268 287 313 305 290 299 312 315 317 318 314 306 306 310 314 322 327 331 336 340 345 346 344 341 344 346 345 343 348 357 1 4 16 29 49 58 60 63 110 135 165 161 165 167
240 253 247 278 297 305 310 313 317 322 323 326 321 316 323 323 326 332 335 340 345 347 343 340 342 342 344 346 351 356 357 360 6 16 42 71 85 56 41 60 77 100 141 160
242 267 254 277 299 308 305 309 316 319 318 324 331 330 332 329 331 336 338 342 342 338 337 337 339 340 342 345 347 352 350 343 347 1 22 60 113 115 78 45 52 66 98 132
261 278 287 290 297 313 314 316 324 330 331 329 329 335 337 338 338 340 337 333 334 336 338 338 340 339 338 341 345 348 345 337 334 336 338 350 161 153 148 139 94 39 45 106
278 248 257 289 310 321 326 335 341 339 339 340 341 342 341 339 335 331 330 331 338 345 343 342 342 338 337 339 343 341 338 332 327 333 339 340 31 103 108 114 127 107 68 95
296 298 290 302 311 322 332 335 330 326 330 331 334 334 332 328 324 326 332 340 345 341 338 338 336 332 335 340 340 336 333 338 341 342 356 16 42 84 107 133 166 178 204 208
277 292 296 304 307 312 313 309 306 310 319 320 320 323 328 330 332 333 335 338 335 327 329 333 330 332 337 340 338 331 331 336 347 350 358 359 6 329 239 213 207 207 245 238
234 251 258 265 280 295 303 307 306 308 308 306 314 322 327 327 323 322 324 330 336 336 337 335 333 336 340 341 338 334 336 336 343 348 348 345 343 332 313 294 254 234 254 260
269 273 278 280 280 283 291 298 302 303 308 315 320 318 314 312 313 317 325 334 337 334 333 334 337 343 341 341 343 342 344 343 345 344 345 347 350 351 345 325 284 263 254 257
291 296 295 297 299 293 294 299 302 305 311 317 317 318 319 319 320 322 325 319 311 307 312 322 328 329 330 334 344 340 338 337 338 337 339 340 335 328 313 302 290 277 265 255
292 300 302 302 303 302 298 299 301 302 307 312 309 307 308 312 317 318 318 316 316 318 320 326 330 326 326 331 336 333 331 332 335 333 328 325 320 314 306 304 297 286 275 267
285 291 294 298 301 304 305 302 295 297 304 306 304 305 310 314 316 313 299 291 307 319 323 319 320 325 329 331 329 328 324 323 321 318 312 309 303 300 300 301 293 285 279 273
273 279 288 294 295 297 306 304 298 297 297 299 301 301 299 298 299 302 307 308 311 317 322 315 319 325 331 340 337 328 325 321 316 311 306 303 299 293 289 292 290 285 277 277
269 278 284 290 298 302 304 304 303 298 291 288 288 287 291 299 299 284 285 305 315 318 320 317 323 328 335 343 333 325 319 316 311 305 301 299 297 294 289 288 289 291 288 282
262 270 282 295 293 287 290 301 305 303 302 299 298 295 290 282 283 296 299 302 309 317 316 318 324 328 335 327 319 312 307 302 300 298 291 291 289 287 287 288 287 289 290 288
258 264 266 264 265 276 287 294 297 300 304 305 306 304 300 296 291 293 298 302 304 312 315 314 316 319 318 313 309 306 303 305 309 310 305 299 294 292 291 292 293 289 287 285
273 278 285 289 286 285 286 284 285 290 293 294 298 301 303 304 304 304 305 308 309 310 310 311 313 313 314 313 310 308 305 302 300 300 299 295 291 289 289 289 288 288 286 283